Ketchikan, AK

2:17 AM AKST on January 21, 2019 (GMT -0900)
Ketchikan International

Weather History for PAKT - November, 2018

Change the Weather History Date:

Thursday, November 1, 2018

  Actual Average Record
Temperature  
Mean Temperature 44 °F -  
Max Temperature 50 °F 48 °F 63 °F (1970)
Min Temperature 39 °F 38 °F 23 °F (2012)
Degree Days  
Heating Degree Days 20    
Moisture  
Dew Point 43 °F    
Average Humidity 90    
Maximum Humidity 93    
Minimum Humidity 79    
Precipitation  
Precipitation 0.90 in - - ()
Sea Level Pressure  
Sea Level Pressure 29.62 in    
Wind  
Wind Speed 7 mph (SSE)    
Max Wind Speed 12 mph    
Max Gust Speed -    
Visibility 5 miles    
Events Rain    
Averages and records for this station are not official NWS values.
T = Trace of Precipitation, MM = Missing Value Source: NWS Daily Summary

Daily Weather History Graph

Daily Weather History Graph

Search for Another Location

Airport or City:

Astronomy

Nov. 01, 2018 Rise Set
Actual Time 7:52 AM AKDT 5:07 PM AKDT
Civil Twilight 7:13 AM AKDT 5:46 PM AKDT
Nautical Twilight 6:29 AM AKDT 6:30 PM AKDT
Astronomical Twilight 5:47 AM AKDT 7:12 PM AKDT
Moon No Moon Rise 3:27 PM AKDT (11/1)
Length of Visible Light 10h 33m
Length of Day
9h 15m
Last Quarter, 37% of the Moon is Illuminated
Nov 1
Last Quarter
Nov 7
New
Nov 15
First Quarter
Nov 22
Full
Nov 29
Last Quarter

Hourly Weather History & Observations

Time (AKDT) Temp. Windchill Dew Point Humidity Pressure Visibility Wind Dir Wind Speed Gust Speed Precip Events Conditions
12:53 AM 44.1 °F 40.1 °F 37.9 °F 79% 29.90 in 6.0 mi SSE 6.9 mph - 0.01 in Rain Light Rain
1:10 AM 43.0 °F 38.2 °F 39.0 °F 86% 29.89 in 5.0 mi SSE 8.1 mph - 0.03 in Rain Light Rain
1:53 AM 43.0 °F 37.7 °F 39.0 °F 86% 29.88 in 5.0 mi SE 9.2 mph - 0.12 in Rain Rain
2:53 AM 42.1 °F 36.6 °F 37.9 °F 85% 29.85 in 5.0 mi SSE 9.2 mph - 0.12 in Rain Rain
3:53 AM 41.0 °F 37.1 °F 37.0 °F 86% 29.79 in 5.0 mi Variable 5.8 mph - 0.06 in Rain Light Rain
4:22 AM 41.0 °F 37.1 °F 37.0 °F 86% 29.77 in 6.0 mi NNW 5.8 mph - 0.04 in Rain Light Rain
4:53 AM 39.9 °F 36.7 °F 37.9 °F 93% 29.75 in 4.0 mi West 4.6 mph - 0.09 in Rain Rain
5:53 AM 39.0 °F 34.8 °F 37.0 °F 93% 29.71 in 4.0 mi Variable 5.8 mph - 0.05 in Rain Light Rain
6:09 AM 39.0 °F - 37.0 °F 93% 29.69 in 5.0 mi Calm Calm - 0.00 in Rain Light Rain
6:53 AM 39.9 °F 37.8 °F 37.9 °F 93% 29.67 in 4.0 mi Variable 3.5 mph - 0.01 in Rain Light Rain
7:53 AM 41.0 °F - 39.0 °F 93% 29.65 in 6.0 mi Calm Calm - 0.01 in Rain Light Rain
8:53 AM 42.8 °F 39.3 °F 39.2 °F 87% 29.63 in 5.0 mi South 5.8 mph - N/A Rain Light Rain
9:53 AM 44.1 °F 40.8 °F 41.0 °F 89% 29.61 in 10.0 mi South 5.8 mph - 0.00 in   Overcast
10:53 AM 45.0 °F 41.8 °F 42.1 °F 90% 29.61 in 10.0 mi South 5.8 mph - N/A   Overcast
11:53 AM 46.0 °F 43.1 °F 42.1 °F 86% 29.61 in 8.0 mi South 5.8 mph - N/A   Overcast
12:53 PM 46.4 °F 42.9 °F 42.8 °F 87% 29.60 in 7.0 mi Variable 6.9 mph - N/A   Overcast
1:53 PM 46.4 °F 43.5 °F 42.8 °F 87% 29.60 in 7.0 mi Variable 5.8 mph - N/A Rain Light Rain
2:53 PM 46.4 °F 44.3 °F 44.6 °F 93% 29.60 in 5.0 mi Variable 4.6 mph - N/A   Overcast
3:53 PM 46.4 °F 44.3 °F 44.6 °F 93% 29.58 in 3.0 mi Variable 4.6 mph - N/A Rain Light Rain
4:53 PM 46.4 °F 43.5 °F 44.6 °F 93% 29.57 in 3.0 mi Variable 5.8 mph - N/A Rain Light Rain
5:53 PM 46.9 °F - 44.1 °F 90% 29.56 in 3.0 mi Variable 4.6 mph - 0.08 in Rain Light Rain
6:53 PM 46.9 °F - 44.1 °F 90% 29.55 in 6.0 mi South 8.1 mph - 0.07 in Rain Light Rain
7:53 PM 46.9 °F - 45.0 °F 93% 29.54 in 10.0 mi SSE 8.1 mph - 0.01 in   Overcast
8:53 PM 48.0 °F - 46.0 °F 93% 29.53 in 3.0 mi SSE 11.5 mph - 0.01 in Rain Light Rain
9:28 PM 48.9 °F - 46.9 °F 93% 29.52 in 6.0 mi SSE 9.2 mph - 0.01 in Rain Light Rain
9:53 PM 48.9 °F - 46.9 °F 93% 29.52 in 3.0 mi SSE 9.2 mph - 0.01 in Rain Light Rain
10:01 PM 48.9 °F - 46.9 °F 93% 29.51 in 2.5 mi SSE 9.2 mph - 0.01 in Rain Light Rain
10:11 PM 48.9 °F - 46.9 °F 93% 29.51 in 1.8 mi SSE 9.2 mph - 0.03 in Rain Light Rain
10:32 PM 48.9 °F - 46.9 °F 93% 29.50 in 2.5 mi South 6.9 mph - 0.09 in Rain Rain
10:48 PM 50.0 °F - 46.4 °F 87% 29.51 in 5.0 mi SSE 10.4 mph - 0.12 in Rain Light Rain
10:53 PM 50.0 °F - 46.9 °F 89% 29.51 in 4.0 mi SE 9.2 mph - 0.13 in Rain Rain
11:08 PM 50.0 °F - 48.0 °F 93% 29.50 in 5.0 mi SE 8.1 mph - 0.02 in Rain Light Rain
11:41 PM 50.0 °F - 48.0 °F 93% 29.50 in 2.5 mi SSE 6.9 mph - 0.09 in Rain Rain
11:53 PM 50.0 °F - 48.0 °F 93% 29.51 in 3.0 mi SE 8.1 mph - 0.12 in Rain Light Rain